Mountain Home, Arkansas, United States (72653)
Lat: 36.34N, Lon: 92.39W
Wx Zone: ARZ005
Local Info
Past Weather Observations for Sunday, August 30, 2015

NOTE: This archive is for the closest National Weather Service station to Mountain Home. Information may differ from the station used for current weather conditions.

Click here for Long-term Archive

Time Weather Temperature Dewpoint Humidity Pressure Winds Precip Visibility
23:53
Clear
72°F / 22°C 66°F / 19°C 83% 30.01 in
(1016 mb)
SE 3.5 mph
(SE 6 kph)
- 8SM
22:53
Clear
73°F / 23°C 68°F / 20°C 83% 30.01 in
(1016 mb)
SE 4.6 mph
(SE 7 kph)
- 8SM
21:53
Clear
73°F / 23°C 66°F / 19°C 78% 30.01 in
(1016 mb)
SE 4.6 mph
(SE 7 kph)
- 8SM
20:53
Clear
75°F / 24°C 68°F / 20°C 78% 30.01 in
(1016 mb)
SE 4.6 mph
(SE 7 kph)
- 8SM
19:53
Clear
77°F / 25°C 68°F / 20°C 74% 30.01 in
(1016 mb)
SE 3.5 mph
(SE 6 kph)
- 8SM
18:53
Clear
79°F / 26°C 72°F / 22°C 79% 30.01 in
(1016 mb)
ESE 3.5 mph
(ESE 6 kph)
- 8SM
17:53
Clear
82°F / 28°C 70°F / 21°C 66% 29.98 in
(1015 mb)
SE 3.5 mph
(SE 6 kph)
- 7SM
16:53
Clear
84°F / 29°C 66°F / 19°C 55% 29.98 in
(1015 mb)
SSE 4.6 mph
(SSE 7 kph)
- 7SM
15:53
Clear
86°F / 30°C 68°F / 20°C 55% 30.01 in
(1016 mb)
Variable 4.6 mph
(Variable 7 kph)
- 7SM
14:53
Partly Cloudy
88°F / 31°C 70°F / 21°C 55% 30.01 in
(1016 mb)
Variable 4.6 mph
(Variable 7 kph)
- 8SM
13:53
Partly Cloudy
86°F / 30°C 68°F / 20°C 55% 30.04 in
(1017 mb)
SSE 5.8 mph
(SSE 9 kph)
- 7SM
12:53
Clear
79°F / 26°C 70°F / 21°C 74% 30.04 in
(1017 mb)
Calm 0.00 in
(0.00 mm)
7SM
11:53
Mostly Cloudy
Light Rain
79°F / 26°C 72°F / 22°C 79% 30.04 in
(1017 mb)
Calm 0.00 in
(0.00 mm)
6SM
10:53
Overcast
Fog And Mist
75°F / 24°C 72°F / 22°C 89% 30.06 in
(1018 mb)
E 3.5 mph
(E 6 kph)
0.00 in
(0.00 mm)
6SM
09:53
Overcast
Fog And Mist
72°F / 22°C 70°F / 21°C 94% 30.06 in
(1018 mb)
S 4.6 mph
(S 7 kph)
- 6SM
08:53
Overcast
Fog And Mist
72°F / 22°C 68°F / 20°C 88% 30.06 in
(1018 mb)
Calm 0.00 in
(0.00 mm)
6SM
07:53
Overcast
Fog And Mist
70°F / 21°C 68°F / 20°C 94% 30.06 in
(1018 mb)
Calm 0.00 in
(0.00 mm)
5SM
06:53
Overcast
Fog And Mist
70°F / 21°C 66°F / 19°C 88% 30.06 in
(1018 mb)
ENE 4.6 mph
(ENE 7 kph)
- 5SM
05:53
Partly Cloudy
Fog And Mist
68°F / 20°C 68°F / 20°C 100% 30.04 in
(1017 mb)
Calm - 4SM
04:53
Overcast
Fog And Mist
68°F / 20°C 66°F / 19°C 94% 30.04 in
(1017 mb)
Calm - 5SM
04:39
Mostly Cloudy
Fog And Mist
68°F / 20°C 66°F / 19°C 94% 30.01 in
(1016 mb)
SE 5.8 mph
(SE 9 kph)
- 4SM
04:24
Partly Cloudy
Thunder Storms
68°F / 20°C 66°F / 19°C 94% 30.01 in
(1016 mb)
ENE 3.5 mph
(ENE 6 kph)
- 4SM
03:53
Overcast
Fog And Mist
68°F / 20°C 66°F / 19°C 94% 30.01 in
(1016 mb)
Calm - 4SM
02:53
Mostly Cloudy
Fog And Mist
68°F / 20°C 66°F / 19°C 94% 30.01 in
(1016 mb)
ENE 4.6 mph
(ENE 7 kph)
- 5SM
01:53
Mostly Cloudy
Fog And Mist
68°F / 20°C 66°F / 19°C 94% 30.01 in
(1016 mb)
ESE 3.5 mph
(ESE 6 kph)
- 6SM
00:53
Mostly Cloudy
Fog And Mist
70°F / 21°C 66°F / 19°C 88% 30.01 in
(1016 mb)
SE 4.6 mph
(SE 7 kph)
- 6SM
Time Weather Temperature Dewpoint Humidity Pressure Winds Precip Visibility


Weather for websites

WeatherForYou.com, LLC is not responsible for any damages or problems caused by this service. Current weather conditions are obtained from the closest station including government and personal stations which may have varying degrees of accuracy. Weather forecasts are derived from the NOAA NDFD. Like all things, this site belongs to Jesus Christ... He just trusts us to maintain it. If you have any questions or comments email webmaster@weatherforyou.com

Copyright © 2015, WeatherForYou.com LLC. All rights reserved.